Weather History for KLYH - March, 2013

Change the Weather History Date:

Sunday, March 10, 2013

  Actual Average Record
Temperature  
Mean Temperature 50 °F 44 °F  
Max Temperature 67 °F 56 °F 79 °F (2006)
Min Temperature 32 °F 32 °F 14 °F (1996)
Degree Days  
Heating Degree Days 15 21  
Month to date heating degree days 252 224  
Since 1 July heating degree days 3427 3648  
Cooling Degree Days 0 0  
Month to date cooling degree days 0 0  
Year to date cooling degree days 0 0  
Moisture  
Dew Point 25 °F    
Average Humidity 46    
Maximum Humidity 69    
Minimum Humidity 22    
Precipitation  
Precipitation 0.00 in 0.11 in 1.05 in (1922)
Month to date precipitation 0.99 1.08  
Year to date precipitation 8.62 7.15  
Snow  
Snow 0.00 in - - ()
Month to date snowfall 3.0  
Since 1 July snowfall 6.4  
Snow Depth 0.00 in    
Sea Level Pressure  
Sea Level Pressure 30.26 in    
Wind  
Wind Speed 5 mph (South)    
Max Wind Speed 15 mph    
Max Gust Speed 17 mph    
Visibility 10 miles    
Events      
T = Trace of Precipitation, MM = Missing Value Source: NWS Daily Summary

Daily Weather History Graph

Daily Weather History Graph

Search for Another Location

Airport or City:

Trip Planner

Search our weather history database for the weather conditions in past years. The results will help you decide how hot, cold, wet, or windy it might be!

Date:

Astronomy

Mar. 10, 2013 Rise Set
Actual Time 7:34 AM EDT 7:19 PM EDT
Civil Twilight 7:08 AM EDT 7:45 PM EDT
Nautical Twilight 6:38 AM EDT 8:15 PM EDT
Astronomical Twilight 6:08 AM EDT 8:46 PM EDT
Moon 6:32 AM EDT (3/10) 6:25 PM EDT (3/10)
Length of Visible Light 12h 36m
Length of Day
11h 44m
Waning Crescent, 2% of the Moon is Illuminated
Mar 10
Waning Crescent
Mar 11
New
Mar 19
First Quarter
Mar 27
Full
Apr 3
Last Quarter

Hourly Weather History & Observations

Time (EDT) Temp. Dew Point Humidity Pressure Visibility Wind Dir Wind Speed Gust Speed Precip Events Conditions
12:54 AM 36.0 °F 21.9 °F 57% 30.32 in 10.0 mi Calm Calm - N/A   Clear
1:54 AM 34.0 °F 21.9 °F 61% 30.31 in 10.0 mi Calm Calm - N/A   Clear
3:54 AM 35.1 °F 23.0 °F 61% 30.28 in 10.0 mi Calm Calm - N/A   Clear
4:54 AM 34.0 °F 25.0 °F 70% 30.28 in 10.0 mi Calm Calm - N/A   Clear
5:54 AM 33.1 °F 25.0 °F 72% 30.29 in 10.0 mi Calm Calm - N/A   Clear
6:54 AM 34.0 °F 23.0 °F 64% 30.29 in 10.0 mi Calm Calm - N/A   Clear
7:54 AM 33.8 °F 23.0 °F 65% 30.30 in 10.0 mi Calm Calm - N/A   Clear
8:54 AM 43.0 °F 30.0 °F 60% 30.31 in 10.0 mi Calm Calm - N/A   Clear
9:54 AM 51.1 °F 26.1 °F 38% 30.33 in 10.0 mi South 3.5 mph - N/A   Clear
10:54 AM 55.0 °F 25.0 °F 31% 30.32 in 10.0 mi SW 11.5 mph - N/A   Clear
11:54 AM 57.9 °F 28.0 °F 32% 30.30 in 10.0 mi South 10.4 mph - N/A   Clear
12:54 PM 59.0 °F 27.0 °F 29% 30.29 in 10.0 mi SSE 5.8 mph - N/A   Clear
1:54 PM 63.0 °F 28.0 °F 27% 30.25 in 10.0 mi Variable 4.6 mph - N/A   Clear
2:54 PM 66.0 °F 27.0 °F 23% 30.23 in 10.0 mi South 8.1 mph - N/A   Clear
3:54 PM 66.0 °F 26.1 °F 22% 30.22 in 10.0 mi SSW 11.5 mph 17.3 mph N/A   Clear
4:54 PM 66.0 °F 26.1 °F 22% 30.20 in 10.0 mi SSE 11.5 mph - N/A   Clear
5:54 PM 64.9 °F 26.1 °F 23% 30.20 in 10.0 mi SSE 4.6 mph - N/A   Clear
6:54 PM 63.0 °F 26.1 °F 25% 30.21 in 10.0 mi SSE 10.4 mph - N/A   Clear
7:54 PM 57.9 °F 26.1 °F 30% 30.22 in 10.0 mi SSE 4.6 mph - N/A   Clear
8:54 PM 57.0 °F 23.0 °F 27% 30.22 in 10.0 mi SE 5.8 mph - N/A   Clear
9:54 PM 55.4 °F 23.0 °F 29% 30.22 in 10.0 mi SSE 5.8 mph - N/A   Clear
10:54 PM 51.1 °F 23.0 °F 33% 30.23 in 10.0 mi South 6.9 mph - N/A   Clear
11:54 PM 52.0 °F 23.0 °F 32% 30.22 in 10.0 mi SSW 6.9 mph - N/A   Clear
12:54 AM 48.2 °F 23.0 °F 37% 30.20 in 10.0 mi South 6.9 mph - N/A   Clear